Tracking 25949 objects as of 8-Aug-2022
HD Live streaming from Space Station
objects crossing your sky now

COSMOS 1275 DEB

Track COSMOS 1275 DEB now!
10-day predictions


NORAD ID: 42143
Int'l Code: 1981-053RF
Perigee: 908.0 km
Apogee: 1,064.3 km
Inclination: 83.0 °
Period: 104.7 minutes
Semi major axis: 7357 km
RCS: Unknown
Launch date: June 4, 1981
Source: Commonwealth of Independent States (former USSR) (CIS)
Launch site: PLESETSK MISSILE AND SPACE COMPLEX (PKMTR)

Note: This is SATELLITE DEBRIS
aabbcc
Your satellite tracking list
Your tracking list is empty




NASA's NSSDC Master Catalog

Two Line Element Set (TLE):
1 42143U 81053RF  22218.52244894  .00000687  00000-0  66741-3 0  9992
2 42143  83.0181 149.3544 0106223  23.3364 337.2562 13.75733389884313
Source of the keplerian elements: AFSPC